Location: Bian
(6.3347°N, 10.6206°W)
Time: 12:56:34
(UTC+00:00)

Daily predictions for brighter satellites

Satellite Brightness Start Highest point End
(mag) Time Altitude Azimuth Time Altitude Azimuth Time Altitude Azimuth
Ariane H10 3.7 19:01:42 10° WSW 19:04:14 50° S 19:10:28 10° E
USA 215 3.3 19:00:40 10° SE 19:07:13 82° NE 19:13:44 10° NNW
Okean 1-7 Rocket 3.7 19:04:14 10° N 19:08:31 55° E 19:12:51 10° SSE
Cosmos 2278 Rocket 3.4 19:04:27 10° NNW 19:09:52 48° WSW 19:15:18 10° S
GPS 2-04 Rocket1 4.3 19:07:56 10° W 19:11:27 33° NW 19:15:06 10° NNE
GPS 2-12 Rocket1 4.1 19:08:28 10° SW 19:12:46 32° SSE 19:17:01 10° E
Hubble Space Telescope 3.7 19:12:50 10° NNW 19:13:18 10° NNW 19:13:45 10° NNW
ADEOS Rocket 3.5 19:08:04 10° N 19:13:39 61° WNW 19:19:03 10° SSW
CZ-4 R/B 4.5 19:15:03 10° SSE 19:19:09 62° ENE 19:23:14 10° N
GPS 2-18 Rocket1 3.9 19:16:54 10° W 19:20:27 44° NNW 19:24:04 10° NE
Cosmos 1943 Rocket 3.9 19:19:13 10° NE 19:21:20 12° ENE 19:23:14 10° E
Delta 2 Rocket 3.8 19:21:46 10° NW 19:25:52 52° NE 19:30:00 13° ESE
CZ-4 R/B 1.2 19:23:41 10° SSE 19:27:32 64° ENE 19:31:20 10° N
ATLAS 3B CENTAUR R/B 2.5 19:19:01 10° NW 19:28:51 64° NNE 19:32:30 15° ESE
Cosmos 1939 Rocket 3.0 19:25:39 10° SSE 19:29:32 50° ENE 19:33:19 10° N
YAOGAN 1 2.7 19:26:21 10° SSE 19:30:32 51° ENE 19:34:43 10° N
Cosmos 2369 Rocket 4.1 19:30:35 10° ENE 19:30:55 10° ENE 19:31:00 10° ENE
STARLINK-1072 4.3 19:29:09 10° NNW 19:32:56 35° NE 19:35:39 16° ESE
CSL-04 Rocket 4.0 19:27:55 10° SSE 19:32:56 42° ENE 19:37:53 10° N
ARIANE 5 DEB (SYLDA) 4.3 19:25:28 10° WSW 19:33:35 34° S 19:36:33 14° ESE
GOES 2 Rocket 4.5 19:32:23 10° NNW 19:35:42 22° NNE 19:38:06 14° ENE
Cosmos 1953 2.4 19:33:13 10° S 19:37:10 78° W 19:41:06 10° N
STARLINK-1096 4.1 19:34:00 10° NNW 19:37:53 40° NE 19:40:26 19° ESE
Ariane H10 3.5 19:36:40 10° WSW 19:39:00 38° SSE 19:42:29 18° ESE
Cosmos 1140 Rocket 3.8 19:34:42 10° S 19:39:37 42° ESE 19:44:29 10° NNE
OAO 2 Rocket 3.7 19:35:19 10° WNW 19:40:26 62° SW 19:44:51 13° SE
Cosmos 1726 2.0 19:37:08 10° S 19:40:51 76° E 19:44:34 10° N
STARLINK-1079 3.9 19:38:54 10° NNW 19:42:52 47° NE 19:45:14 22° ESE
Cosmos 1190 Rocket 4.0 19:40:44 10° S 19:45:58 62° ESE 19:51:11 10° NNE
STARLINK-1116 3.7 19:43:48 10° NNW 19:47:50 55° NE 19:50:01 25° SE
Meteor 2-10 4.2 19:43:31 10° S 19:48:44 80° W 19:54:09 10° N
Cosmos 614 Rocket 4.3 19:46:45 10° SSW 19:51:55 68° WNW 19:57:06 10° N
USA 234 3.4 19:47:56 10° NNE 19:54:26 77° NW 20:00:59 10° SW
Cosmos 1726 Rocket 3.7 19:51:10 10° SSE 19:55:22 49° E 19:59:35 10° NNE
Cosmos 1626 Rocket 3.4 19:51:48 10° N 19:56:06 80° E 20:00:24 10° S
STARLINK-1094 3.5 19:53:40 10° NNW 19:57:47 76° NE 19:59:35 32° SE
Centaur D-1AR AC-39 1.5 19:54:25 10° WNW 19:59:36 73° NNE 20:00:48 39° E
CZ-3A R/B 4.2 19:28:54 10° WNW 20:01:42 44° N 20:07:09 20° ENE
STARLINK-1117 3.5 19:58:37 10° NW 20:02:44 88° NE 20:04:22 36° SE
CZ-2D R/B 4.2 19:59:27 10° S 20:03:09 49° W 20:06:49 10° NNW
Cosmos 1602 Rocket 3.4 20:03:20 10° N 20:07:41 83° E 20:11:49 11° S
STARLINK-1078 3.6 20:03:35 10° NW 20:07:42 79° SW 20:09:09 39° SSE
Nadezhda 1 Rocket 3.9 20:02:15 10° S 20:08:35 67° E 20:14:54 10° N
H-2A R/B 2.9 20:08:46 10° WNW 20:09:16 12° NW 20:09:16 12° NW
Cosmos 2184 Rocket 4.4 20:06:02 10° NNE 20:11:39 36° E 20:11:46 36° E
ARGOS Delta rocket 3.9 20:08:28 21° SSE 20:11:48 64° E 20:16:58 10° N
Ariane H10 4.0 20:08:52 10° SW 20:11:48 15° SSW 20:12:42 14° S
ASTRO E2 2.8 20:08:39 10° WSW 20:12:37 71° NNW 20:13:27 51° NNE
DMSP B5D2-2 4.3 20:07:40 10° NNE 20:12:39 45° ESE 20:17:39 10° S
STARLINK-1108 3.8 20:08:35 10° NW 20:12:41 67° SW 20:13:57 41° SSE
Ariane H10+ 4.5 20:04:17 10° WSW 20:13:19 25° SSW 20:15:15 19° SSE
IRIDIUM 114 4.3 20:08:14 10° N 20:13:21 59° E 20:16:30 23° SSE
Cosmos 407 Rocket 4.5 20:08:39 10° SSW 20:13:38 47° WNW 20:18:34 10° N
Cosmos 2228 3.3 20:09:39 10° S 20:13:52 67° W 20:18:06 10° N
Cosmos 676 Rocket 3.9 20:09:26 10° S 20:14:44 69° ESE 20:19:59 10° NNE
STARLINK-1071 4.1 20:13:35 10° NW 20:17:38 57° SW 20:18:44 42° S
Skynet4D Del rocket 3.4 20:15:38 10° SW 20:21:14 68° SSE 20:22:02 59° ESE
IRIDIUM 103 4.1 20:17:19 10° N 20:22:30 77° E 20:25:39 25° S
STARLINK-1110 4.4 20:18:37 10° NW 20:22:36 49° SW 20:23:31 40° SSW
ARIANE 5 R/B 4.3 20:20:58 10° WSW 20:21:07 11° WSW 20:21:07 11° WSW
ARIANE 5 R/B 4.3 19:40:22 10° W 20:27:07 77° S 20:29:44 45° ESE
Longmarch 3A Rocket 4.2 19:25:06 10° WNW 20:28:37 72° SW 20:32:15 37° SE
Centaur AC-125 4.3 20:29:58 10° WSW 20:30:33 15° WSW 20:30:33 15° WSW
Cosmos 1992 Rocket 4.2 20:31:33 10° N 20:35:44 57° NNE 20:35:44 57° NNE
Cosmos 1954 Rocket 4.3 20:32:32 10° SSW 20:37:47 66° WNW 20:42:59 10° N
H-2A R/B 2.7 20:56:29 51° NW 20:56:29 51° NW 21:00:27 10° NNW
Cosmos 2074 Rocket 4.1 20:49:32 10° N 20:55:48 74° W 20:56:31 66° SW
CZ-2C R/B 4.5 21:01:10 29° NNW 21:01:10 29° NNW 21:03:32 10° NNW
Cosmos 1943 Rocket 3.1 20:59:35 10° NNW 21:04:51 45° WSW 21:04:51 45° WSW
Ariane 3 Deb 4.4 20:43:45 10° WSW 21:08:59 57° S 21:08:59 57° S
ATLAS 2AS CENTAUR RB 3.2 20:56:09 10° W 21:12:24 53° NNW 21:12:24 53° NNW
Cosmos 2369 Rocket 3.5 21:09:22 10° NNW 21:12:52 36° NW 21:12:52 36° NW
ARIANE 5 DEB (SYLDA) 4.3 21:20:38 10° W 21:31:24 45° SW 21:31:24 45° SW
ATLAS 5 CENTAUR R/B 4.3 22:14:13 10° NW 22:56:01 18° E 23:14:13 10° E
